Flag for U.S.A. Weather past 2 weeks in Menominee, Michigan, U.S.A.

Now
10 °F

Sunny.


Feels Like: -2 °F
Forecast: 4 / 24 °F
Wind: 8 mph from Southwest

Location: Menominee Weather Reporting Station

Current Time: Mar 1, 2015 at 7:05:44 AM

Latest Report: Mar 1, 2015 at 6:35 AM


Visibility: 10 mi

Pressure: 30.29 "Hg

Humidity: 67%

Dew point: 1 °F

Location of MenomineeLocation

Historic Weather in Menominee — Graph

°F

Menominee temperature yesterday

Maximum temperature yesterday: 19 °F (at 1:55 PM)
Minimum temperature yesterday: 0 °F (at 6:15 AM)
Average temperature yesterday: 10 °F

Past Weeks' High & Low Weather Summary

 TemperatureHumidityPressure
High32 °F (Feb 24, 2:35 PM)93% (Feb 21, 7:15 PM)30.64 "Hg (Feb 21, 7:15 PM)
Low-15 °F (Feb 19, 7:15 AM)24% (Feb 24, 4:35 PM)29.43 "Hg (Feb 24, 2:35 PM)
Average5 °F62%30.18 "Hg
* Reported Feb 14 5:15 AM — Mar 1 5:55 AM, Menominee, Weather by CustomWeather, © 2015

Note: Actual official high and low records may vary slightly from our data, if they occured in-between our weather recording intervals... More about our weather records

Advertising

Menominee weather history for previous 24 hours

 ConditionsComfort  
Time TempWeatherWind HumidityBarometerVisibility
5:55 AM
Sun, Mar 1
10 °FScattered clouds.7 mph61%30.30 "Hg10 mi
5:35 AM10 °FScattered clouds.5 mph61%30.31 "Hg10 mi
5:15 AM12 °FClear.5 mph62%30.32 "Hg10 mi
4:55 AM12 °FClear.7 mph62%30.32 "Hg10 mi
4:35 AM12 °FPassing clouds.8 mph62%30.33 "Hg10 mi
4:15 AM12 °FOvercast.5 mph62%30.33 "Hg10 mi
3:55 AM14 °FOvercast.6 mph57%30.32 "Hg10 mi
3:35 AM14 °FMostly cloudy.6 mph57%30.32 "Hg10 mi
3:15 AM14 °FOvercast.7 mph57%30.32 "Hg10 mi
2:55 AM16 °FOvercast.6 mph53%30.33 "Hg10 mi
2:35 AM16 °FMostly cloudy.9 mph53%30.34 "Hg10 mi
2:15 AM16 °FMostly cloudy.8 mph53%30.35 "Hg10 mi
1:55 AM16 °FMostly cloudy.6 mph53%30.36 "Hg10 mi
1:35 AM16 °FMostly cloudy.7 mph53%30.37 "Hg10 mi
1:15 AM16 °FOvercast.8 mph53%30.37 "Hg10 mi
12:55 AM16 °FOvercast.7 mph53%30.37 "Hg10 mi
12:35 AM16 °FOvercast.6 mph53%30.38 "Hg10 mi
12:15 AM14 °FOvercast.6 mph62%30.38 "Hg10 mi
11:55 PM
Sat, Feb 28
14 °FOvercast.7 mph57%30.38 "Hg10 mi
11:35 PM12 °FOvercast.7 mph67%30.39 "Hg10 mi
11:15 PM12 °FOvercast.8 mph67%30.39 "Hg10 mi
10:55 PM12 °FOvercast.8 mph62%30.40 "Hg10 mi
10:35 PM12 °FOvercast.8 mph62%30.41 "Hg10 mi
10:15 PM10 °FOvercast.6 mph67%30.42 "Hg10 mi
9:55 PM10 °FOvercast.9 mph67%30.42 "Hg10 mi
9:15 PM12 °FPassing clouds.7 mph57%30.43 "Hg10 mi
8:55 PM12 °FPassing clouds.6 mph52%30.43 "Hg10 mi
8:35 PM12 °FPassing clouds.7 mph52%30.44 "Hg10 mi
8:15 PM12 °FClear.8 mph57%30.45 "Hg10 mi
7:55 PM14 °FClear.9 mph52%30.45 "Hg10 mi
7:35 PM14 °FClear.10 mph52%30.45 "Hg10 mi
7:15 PM14 °FClear.8 mph48%30.46 "Hg10 mi
6:55 PM14 °FClear.7 mph52%30.47 "Hg10 mi
6:35 PM16 °FClear.9 mph48%30.47 "Hg10 mi
6:15 PM16 °FClear.10 mph45%30.47 "Hg10 mi
5:55 PM16 °FClear.9 mph45%30.47 "Hg10 mi
5:35 PM16 °FClear.10 mph45%30.47 "Hg10 mi
5:15 PM18 °FClear.12 mph41%30.48 "Hg10 mi
4:55 PM18 °FClear.12 mph45%30.47 "Hg10 mi
4:35 PM18 °FSunny.13 mph45%30.48 "Hg10 mi
4:15 PM19 °FSunny.14 mph42%30.49 "Hg10 mi
3:55 PM19 °FSunny.13 mph45%30.50 "Hg10 mi
3:35 PM19 °FSunny.12 mph45%30.51 "Hg10 mi
3:15 PM19 °FSunny.15 mph49%30.51 "Hg10 mi
2:55 PM19 °FSunny.14 mph45%30.51 "Hg10 mi
2:35 PM19 °FSunny.13 mph49%30.52 "Hg10 mi
2:15 PM19 °FSunny.15 mph49%30.53 "Hg10 mi
1:55 PM19 °FSunny.10 mph49%30.53 "Hg10 mi
1:35 PM18 °FSunny.12 mph53%30.53 "Hg10 mi
1:15 PM18 °FSunny.13 mph49%30.55 "Hg10 mi
12:55 PM18 °FSunny.12 mph53%30.56 "Hg10 mi
12:35 PM18 °FSunny.10 mph49%30.57 "Hg10 mi
12:15 PM16 °FSunny.9 mph53%30.58 "Hg10 mi
11:55 AM16 °FSunny.8 mph53%30.59 "Hg10 mi
11:35 AM16 °FSunny.8 mph48%30.59 "Hg10 mi
11:15 AM16 °FSunny.9 mph48%30.60 "Hg10 mi
10:55 AM14 °FSunny.5 mph52%30.61 "Hg10 mi
10:35 AM12 °FSunny.8 mph57%30.61 "Hg10 mi
10:15 AM12 °FSunny.5 mph57%30.61 "Hg10 mi
9:55 AM10 °FSunny.5 mph61%30.62 "Hg10 mi
9:35 AM9 °FSunny.5 mph66%30.61 "Hg10 mi
9:15 AM7 °FSunny.7 mph66%30.62 "Hg10 mi
8:55 AM7 °FSunny.6 mph66%30.62 "Hg10 mi
8:35 AM5 °FSunny.6 mph60%30.62 "Hg10 mi
8:15 AM3 °FSunny.6 mph66%30.62 "Hg10 mi
7:55 AM3 °FSunny.7 mph72%30.61 "Hg10 mi
7:35 AM1 °FSunny.8 mph71%30.60 "Hg10 mi
7:15 AM1 °FSunny.8 mph71%30.60 "Hg10 mi
Weather by CustomWeather, © 2015

See weather overviewHow to use our weather pages